DECAYED

STARLINK-1863, 47150 (Decayed)

Orbit data source: Space-Track

STARLINK-1863, 47150 was a payload satellite owned by SpaceX/Seattle (US) in LEO that was launched on Wed, 25 Nov 2020 UTC via an FALCON 9 launch vehicle from the Air Force Eastern Test Range (AFETR). Payload-class satellites include a variety of spacecraft equipped with specific instruments for various scientific and technological missions. These include communications satellites like Starlink; space stations such as the ISS; scientific satellites like the Hubble; Earth observation satellites from companies like Planet Labs, Umbra, and HawkEye 360; GPS; miniature CubeSats for education and research; and military/defense satellites.

Not visible in the next 10 days
Identifier
47150, 2020-088AE
Orbit
Decayed
Country
Flag of USUS
Related business
Manufacturer
SpaceX/Seattle
Mission
Decayed Commercial Communications
Bus & Motor
STARLINK, Unknown motor
Mass
260 kg wet, ~248 kg dry
Launch date (UTC)
2020-11-25 (6 years ago)
Launch vehicle
FALCON 9
Launch site
Air Force Eastern Test Range (AFETR)
Object type
Payload
Rocket body
Debris
Shape & HBR
Box + 1 Pan, 10.1 m
Radar Cross Section
13.562 m², Large (>1 m²)

Expand to show TLE details & history
Last TLE update: 8 months ago

TLE from 8 months ago
0 STARLINK-1863
1 47150U 20088AE  25304.84637000  .09570548  12378-4  76338-3 0  9990
2 47150  53.0205  80.8250 0005736 292.7719  67.2721 16.39214133273533
Epoch: 2025-10-31T20:18Z
TLE epoch observation values (Epoch: 2025-10-31T20:18:46.368Z)
Latitude
-0.00001°
Longitude
95.74685°
Altitude
167.371 km
Speed
7.808 km/s
True Right ascension
05h 23m 17s
True Declination
0° 00' 00"
Sunlit
Object was in full shadow at epoch
Visualization orbit readout
Latitude
Unknown
Longitude
Unknown
Altitude
Unknown
Speed
Unknown
Apparent Right ascension
Unknown
Apparent Declination
Unknown
Sunlit
N/A
Visualization observer readout
Local Sidereal Time
21:25:59
Azimuth
Unknown
Elevation
Unknown
Doppler factor
Unknown
Orbital elements
Apogee altitude
171.941 km
Perigee altitude
164.431 km
Semi-major axis
6,546.323 km
Eccentricity
0.00057
Inclination
53.0205°
RAAN
80.825°
Arg. of periapsis
292.7719°
True anomaly
67.33274°
Mean anomaly
67.2721°
Eccentric anomaly
67.30242°
Mean motion
4.09777 °/min
Orbital period
87.85 mins
BSTAR
0.00076338
Loading maneuver chart data...
Computing Atmospheric mass density...

Documentation

Showing up to 5 results
|